This is the latest recevied weather packets stored in our database for station/object KD0ISH. If no packets are shown the sender has not sent any weather packets the latest 10 day(s).
| Time | Temp. | Humidity | Pressure | Rain* | Wind** | Luminosity | Snow |
|---|---|---|---|---|---|---|---|
| 1777130104 | 20.56° C | 78% | 1012.2 hPa | 0 mm | - | 46 W/m² | - |
| 1777129801 | 20.56° C | 81% | 1012.2 hPa | 0 mm | - | 69 W/m² | - |
| 1777129495 | 20.56° C | 80% | 1012.3 hPa | 0 mm | - | 42 W/m² | - |
| 1777129195 | 20° C | 81% | 1012.5 hPa | 0 mm | - | 182 W/m² | - |
| 1777128891 | 20° C | 82% | 1012.4 hPa | 0 mm | - | 46 W/m² | - |
| 1777128587 | 19.44° C | 83% | 1012 hPa | 0 mm | - | 41 W/m² | - |
| 1777128285 | 19.44° C | 83% | 1012.4 hPa | 0 mm | - | 42 W/m² | - |
| 1777127982 | 18.89° C | 85% | 1012.3 hPa | 0 mm | - | 56 W/m² | - |
| 1777127680 | 18.89° C | 85% | 1012.6 hPa | 0 mm | - | 101 W/m² | - |
| 1777127377 | 18.89° C | 86% | 1012.6 hPa | 0 mm | - | 55 W/m² | - |
| 1777127073 | 18.33° C | 86% | 1012.6 hPa | 0 mm | - | 41 W/m² | - |
| 1777126768 | 18.89° C | 87% | 1012.6 hPa | 0 mm | - | 41 W/m² | - |
| 1777126465 | 18.33° C | 87% | 1012.5 hPa | 0 mm | - | 40 W/m² | - |
| 1777126160 | 17.78° C | 88% | 1012.7 hPa | 0 mm | - | 42 W/m² | - |
| 1777125856 | 17.78° C | 88% | 1012.7 hPa | 0 mm | - | 40 W/m² | - |
| 1777125553 | 17.78° C | 87% | 1012.9 hPa | 0 mm | - | 115 W/m² | - |
| 1777125249 | 17.78° C | 88% | 1012.9 hPa | 0 mm | - | 41 W/m² | - |
| 1777124948 | 17.22° C | 89% | 1012.7 hPa | 0 mm | - | 40 W/m² | - |
| 1777124646 | 17.22° C | 89% | 1012.8 hPa | 0 mm | - | 39 W/m² | - |
| 1777124341 | 17.22° C | 89% | 1012.8 hPa | 0 mm | - | 44 W/m² | - |
| 1777124038 | 17.22° C | 89% | 1012.6 hPa | 0 mm | - | 39 W/m² | - |
| 1777123734 | 16.67° C | 90% | 1012.6 hPa | 0 mm | - | 39 W/m² | - |
| 1777123430 | 16.67° C | 90% | 1012.6 hPa | 0 mm | - | 38 W/m² | - |
| 1777123127 | 16.67° C | 90% | 1012.7 hPa | 0 mm | - | 156 W/m² | - |
| 1777122823 | 16.67° C | 90% | 1012.7 hPa | 0 mm | - | 40 W/m² | - |
* Rain latest hour (hover to see other rain measurements)
** Current wind speed in m/s (hover to see current wind gust speed)